Weather History for Monett, MO

Change the Weather History Date:

Sunday, January 13, 2013

  Actual Average (KJLN) Record (KJLN)
Temperature  
Mean Temperature 22 °F 35 °F  
Max Temperature 26 °F 44 °F 70 °F (1996)
Min Temperature 15 °F 25 °F -4 °F (1997)
Degree Days  
Heating Degree Days 44 30  
Month to date heating degree days 390  
Since 1 July heating degree days 2007  
Cooling Degree Days 0 0  
Month to date cooling degree days 0  
Year to date cooling degree days 0  
Moisture  
Dew Point 18 °F    
Average Humidity 87    
Maximum Humidity 93    
Minimum Humidity 79    
Precipitation  
Precipitation 0.00 in 0.06 in 1.56 in (1995)
Month to date precipitation 0.88  
Year to date precipitation 0.88  
Sea Level Pressure  
Sea Level Pressure 30.16 in    
Wind  
Wind Speed 5 mph (NNW)    
Max Wind Speed 8 mph    
Max Gust Speed -    
Visibility 10 miles    
Events Snow    
T = Trace of Precipitation, MM = Missing Value Source: NWS Daily Summary

Daily Weather History Graph

Daily Weather History Graph

Search for Another Location

Airport:

Trip Planner

Search our weather history database for the weather conditions in past years. The results will help you decide how hot, cold, wet, or windy it might be!

Date:

Astronomy

Jan. 13, 2013 Rise Set
Actual Time 7:28 AM CST 5:21 PM CST
Civil Twilight 7:00 AM CST 5:49 PM CST
Nautical Twilight 6:28 AM CST 6:21 PM CST
Astronomical Twilight 5:57 AM CST 6:53 PM CST
Moon 8:31 AM CST (1/13) 7:55 PM CST (1/13)
Length of Visible Light 10h 49m
Length of Day
9h 52m
Waxing Crescent, 5% of the Moon is Illuminated
Jan 13
Waxing Crescent
Jan 18
First Quarter
Jan 26
Full
Feb 3
Last Quarter
Feb 10
New

Hourly Weather History & Observations

Time (CST) Temp. Windchill Dew Point Humidity Pressure Visibility Wind Dir Wind Speed Gust Speed Precip Events Conditions
12:15 AM 26.6 °F 20.0 °F 23.0 °F 86% 29.97 in 10.0 mi NNW 5.8 mph - N/A   Overcast
12:35 AM 24.8 °F 16.9 °F 23.0 °F 93% 29.97 in 10.0 mi NNW 6.9 mph - N/A   Overcast
12:55 AM 26.6 °F 21.2 °F 23.0 °F 86% 30.01 in 10.0 mi NNW 4.6 mph - N/A   Overcast
1:15 AM 24.8 °F 16.1 °F 23.0 °F 93% 29.98 in 10.0 mi North 8.1 mph - N/A   Overcast
1:35 AM 24.8 °F 16.9 °F 23.0 °F 93% 30.02 in 10.0 mi NNW 6.9 mph - N/A   Overcast
1:55 AM 24.8 °F 17.9 °F 21.2 °F 86% 29.98 in 10.0 mi North 5.8 mph - N/A   Overcast
2:15 AM 24.8 °F 17.9 °F 21.2 °F 86% 30.01 in 10.0 mi NNW 5.8 mph - N/A   Overcast
2:35 AM 23.0 °F 15.8 °F 21.2 °F 93% 30.00 in 10.0 mi North 5.8 mph - N/A   Overcast
2:55 AM 23.0 °F 15.8 °F 19.4 °F 86% 30.02 in 10.0 mi North 5.8 mph - N/A   Overcast
3:15 AM 23.0 °F 13.9 °F 19.4 °F 86% 30.01 in 10.0 mi North 8.1 mph - N/A   Overcast
3:35 AM 23.0 °F 14.7 °F 19.4 °F 86% 30.01 in 10.0 mi North 6.9 mph - N/A   Overcast
3:55 AM 23.0 °F 15.8 °F 19.4 °F 86% 30.03 in 10.0 mi North 5.8 mph - N/A   Overcast
4:15 AM 23.0 °F 15.8 °F 19.4 °F 86% 30.02 in 10.0 mi North 5.8 mph - N/A   Overcast
4:35 AM 23.0 °F 15.8 °F 19.4 °F 86% 30.05 in 10.0 mi North 5.8 mph - N/A   Overcast
4:55 AM 23.0 °F 14.7 °F 19.4 °F 86% 30.08 in 10.0 mi NNW 6.9 mph - N/A   Overcast
5:15 AM 23.0 °F 14.7 °F 19.4 °F 86% 30.08 in 10.0 mi NW 6.9 mph - N/A   Overcast
5:35 AM 23.0 °F 14.7 °F 19.4 °F 86% 30.06 in 10.0 mi NNW 6.9 mph - N/A   Overcast
5:55 AM 21.2 °F 13.6 °F 17.6 °F 86% 30.08 in 10.0 mi NNW 5.8 mph - N/A   Overcast
6:15 AM 21.2 °F 11.7 °F 17.6 °F 86% 30.08 in 10.0 mi NNW 8.1 mph - N/A   Overcast
6:35 AM 21.2 °F 13.6 °F 19.4 °F 93% 30.09 in 5.0 mi NNW 5.8 mph - N/A Snow Light Snow
6:55 AM 21.2 °F 13.6 °F 17.6 °F 86% 30.09 in 7.0 mi North 5.8 mph - N/A   Overcast
7:15 AM 21.2 °F 12.6 °F 17.6 °F 86% 30.09 in 10.0 mi NNW 6.9 mph - N/A   Overcast
7:35 AM 21.2 °F 13.6 °F 17.6 °F 86% 30.10 in 10.0 mi North 5.8 mph - N/A   Overcast
7:55 AM 19.4 °F 11.5 °F 17.6 °F 93% 30.12 in 10.0 mi NNW 5.8 mph - N/A   Overcast
8:15 AM 19.4 °F 10.4 °F 17.6 °F 93% 30.12 in 10.0 mi NNW 6.9 mph - N/A   Overcast
8:35 AM 19.4 °F 9.5 °F 17.6 °F 93% 30.15 in 10.0 mi NW 8.1 mph - N/A   Overcast
9:15 AM 19.4 °F 11.5 °F 17.6 °F 93% 30.16 in 10.0 mi NNW 5.8 mph - N/A   Overcast
9:55 AM 19.4 °F 11.5 °F 17.6 °F 93% 30.17 in 10.0 mi NNW 5.8 mph - N/A   Overcast
10:15 AM 19.4 °F 10.4 °F 17.6 °F 93% 30.18 in 10.0 mi NW 6.9 mph - N/A   Overcast
10:35 AM 19.4 °F 10.4 °F 15.8 °F 86% 30.19 in 10.0 mi NNW 6.9 mph - N/A   Overcast
10:55 AM 19.4 °F 12.8 °F 14.0 °F 80% 30.19 in 10.0 mi NNW 4.6 mph - N/A   Mostly Cloudy
11:15 AM 19.4 °F 10.4 °F 17.6 °F 93% 30.18 in 10.0 mi NW 6.9 mph - N/A   Mostly Cloudy
11:55 AM 19.4 °F 11.5 °F 15.8 °F 86% 30.18 in 10.0 mi NW 5.8 mph - N/A   Overcast
12:15 PM 19.4 °F 9.5 °F 15.8 °F 86% 30.18 in 10.0 mi NW 8.1 mph - N/A   Mostly Cloudy
12:35 PM 21.2 °F 12.6 °F 15.8 °F 80% 30.18 in 10.0 mi NW 6.9 mph - N/A   Mostly Cloudy
12:55 PM 21.2 °F 12.6 °F 17.6 °F 86% 30.18 in 10.0 mi NNW 6.9 mph - N/A   Overcast
1:15 PM 21.2 °F 12.6 °F 17.6 °F 86% 30.19 in 10.0 mi NNW 6.9 mph - N/A   Overcast
1:35 PM 21.2 °F 12.6 °F 17.6 °F 86% 30.19 in 10.0 mi NW 6.9 mph - N/A   Mostly Cloudy
1:55 PM 21.2 °F 13.6 °F 17.6 °F 86% 30.20 in 10.0 mi NW 5.8 mph - N/A   Scattered Clouds
2:15 PM 21.2 °F 13.6 °F 17.6 °F 86% 30.20 in 10.0 mi NW 5.8 mph - N/A   Mostly Cloudy
2:35 PM 23.0 °F 15.8 °F 19.4 °F 86% 30.20 in 10.0 mi NW 5.8 mph - N/A   Overcast
2:55 PM 23.0 °F 15.8 °F 19.4 °F 86% 30.21 in 10.0 mi NNW 5.8 mph - N/A   Overcast
3:15 PM 23.0 °F 14.7 °F 19.4 °F 86% 30.22 in 10.0 mi NW 6.9 mph - N/A   Overcast
3:55 PM 23.0 °F 18.4 °F 19.4 °F 86% 30.23 in 10.0 mi NW 3.5 mph - N/A   Overcast
4:15 PM 23.0 °F 18.4 °F 19.4 °F 86% 30.23 in 10.0 mi NNW 3.5 mph - N/A   Overcast
4:35 PM 23.0 °F 18.4 °F 19.4 °F 86% 30.22 in 10.0 mi North 3.5 mph - N/A   Mostly Cloudy
4:55 PM 23.0 °F 18.4 °F 17.6 °F 80% 30.23 in 10.0 mi North 3.5 mph - N/A   Scattered Clouds
5:15 PM 21.2 °F 16.4 °F 17.6 °F 86% 30.24 in 10.0 mi NNW 3.5 mph - N/A   Scattered Clouds
5:35 PM 21.2 °F - 17.6 °F 86% 30.24 in 10.0 mi Calm Calm - N/A   Clear
5:55 PM 21.2 °F 16.4 °F 17.6 °F 86% 30.25 in 10.0 mi NNW 3.5 mph - N/A   Clear
6:35 PM 19.4 °F - 15.8 °F 86% 30.25 in 10.0 mi Calm Calm - N/A   Clear
6:55 PM 19.4 °F 14.3 °F 15.8 °F 86% 30.25 in 10.0 mi North 3.5 mph - N/A   Clear
7:15 PM 19.4 °F - 15.8 °F 86% 30.24 in 10.0 mi Calm Calm - N/A   Clear
7:35 PM 19.4 °F - 14.0 °F 80% 30.26 in 10.0 mi Calm Calm - N/A   Clear
7:55 PM 17.6 °F - 14.0 °F 86% 30.26 in 10.0 mi Calm Calm - N/A   Clear
8:15 PM 17.6 °F - 14.0 °F 86% 30.26 in 10.0 mi Calm Calm - N/A   Clear
8:35 PM 17.6 °F - 14.0 °F 86% 30.27 in 10.0 mi Calm Calm - N/A   Clear
8:55 PM 17.6 °F - 14.0 °F 86% 30.26 in 10.0 mi Calm Calm - N/A   Clear
9:15 PM 17.6 °F - 14.0 °F 86% 30.27 in 10.0 mi Calm Calm - N/A   Clear
9:35 PM 17.6 °F - 14.0 °F 86% 30.28 in 10.0 mi Calm Calm - N/A   Clear
9:55 PM 17.6 °F - 14.0 °F 86% 30.29 in 10.0 mi Calm Calm - N/A   Clear
10:15 PM 17.6 °F - 14.0 °F 86% 30.29 in 10.0 mi Calm Calm - N/A   Clear
10:35 PM 17.6 °F - 14.0 °F 86% 30.30 in 10.0 mi Calm Calm - N/A   Clear
10:55 PM 17.6 °F - 14.0 °F 86% 30.31 in 10.0 mi Calm Calm - N/A   Clear
11:15 PM 17.6 °F - 12.2 °F 79% 30.30 in 10.0 mi Calm Calm - N/A   Clear
11:35 PM 17.6 °F - 14.0 °F 86% 30.32 in 10.0 mi Calm Calm - N/A   Clear
11:55 PM 15.8 °F - 12.2 °F 86% 30.33 in 10.0 mi Calm Calm - N/A   Clear